Diyarbakir, Turkey

6:48 AM +03 on May 30, 2017 (GMT +0300)
Diyarbakir

Weather History for LTCC - August, 2013

Change the Weather History Date:

Friday, August 16, 2013

  Actual Average Record
Temperature  
Mean Temperature 86 °F -  
Max Temperature 103 °F 96 °F 107 °F (1999)
Min Temperature 69 °F 66 °F 66 °F (1997)
Cooling Degree Days 21    
Growing Degree Days 36 (Base 50)    
Moisture  
Dew Point 33 °F    
Average Humidity 14    
Maximum Humidity 27    
Minimum Humidity 4    
Precipitation  
Precipitation 0.00 in 0.00 in - ()
Sea Level Pressure  
Sea Level Pressure 29.65 in    
Wind  
Wind Speed 6 mph ()    
Max Wind Speed 13 mph    
Max Gust Speed -    
Visibility 12.0 miles    
Events      
Averages and records for this station are not official NWS values.
T = Trace of Precipitation, MM = Missing Value Source: Averaged Metar Reports

Daily Weather History Graph

Daily Weather History Graph

Search for Another Location

Airport or City:

Trip Planner

Search our weather history database for the weather conditions in past years. The results will help you decide how hot, cold, wet, or windy it might be!

Date:

Astronomy

Aug. 16, 2013 Rise Set
Actual Time 5:35 AM EEST 7:11 PM EEST
Civil Twilight 5:07 AM EEST 7:38 PM EEST
Nautical Twilight 4:33 AM EEST 8:12 PM EEST
Astronomical Twilight 3:58 AM EEST 8:47 PM EEST
Moon 3:06 PM EEST (8/16) 12:19 AM EEST (8/16)
Length of Visible Light 14h 31m
Length of Day
13h 35m
Waxing Gibbous, 71% of the Moon is Illuminated
Aug 16
Waxing Gibbous
Aug 21
Full
Aug 28
Last Quarter
Sep 5
New
Sep 12
First Quarter

Hourly Weather History & Observations

Time (EEST) Temp. Dew Point Humidity Pressure Visibility Wind Dir Wind Speed Gust Speed Precip Events Conditions
12:20 AM 84.2 °F 26.6 °F 12% 29.68 in - WNW 10.4 mph - N/A   Clear
12:50 AM 84.2 °F 26.6 °F 12% 29.68 in - NE 3.5 mph - N/A   Clear
1:20 AM 86.0 °F 24.8 °F 11% 29.68 in - West 4.6 mph - N/A   Clear
1:50 AM 80.6 °F 30.2 °F 16% 29.68 in - Variable 1.2 mph - N/A   Clear
2:20 AM 75.2 °F 32.0 °F 21% 29.68 in - Variable 2.3 mph - N/A   Clear
2:50 AM 75.2 °F 32.0 °F 21% 29.68 in - North 4.6 mph - N/A   Clear
3:00 AM 76 °F 32 °F 11% 29.52 in 12 mi North 4.6 mph - -  
3:20 AM 75.2 °F 32.0 °F 21% 29.68 in - Variable 2.3 mph - N/A   Clear
3:50 AM 73.4 °F 32.0 °F 22% 29.68 in - South 5.8 mph - N/A   Clear
4:20 AM 71.6 °F 33.8 °F 25% 29.68 in - South 3.5 mph - N/A   Clear
4:50 AM 69.8 °F 32.0 °F 25% 29.68 in - NW 3.5 mph - N/A   Clear
5:20 AM 69.8 °F 32.0 °F 25% 29.68 in - West 4.6 mph - N/A   Clear
5:50 AM 73.4 °F 37.4 °F 27% 29.68 in - WNW 6.9 mph - N/A   Clear
6:20 AM 73.4 °F 37.4 °F 27% 29.71 in - WNW 3.5 mph - N/A   Clear
6:50 AM 78.8 °F 39.2 °F 24% 29.71 in - NNW 5.8 mph - N/A   Clear
7:20 AM 84.2 °F 41.0 °F 22% 29.71 in - NNW 6.9 mph - N/A   Clear
7:50 AM 82.4 °F 41.0 °F 23% 29.71 in - East 5.8 mph - N/A   Clear
8:20 AM 84.2 °F 42.8 °F 23% 29.71 in - East 5.8 mph - N/A   Clear
8:50 AM 87.8 °F 44.6 °F 22% 29.71 in - East 6.9 mph - N/A   Clear
9:00 AM 87 °F 43 °F 13% 29.54 in 12 mi East 6.9 mph - -  
9:20 AM 91.4 °F 42.8 °F 18% 29.71 in - Variable 4.6 mph - N/A   Clear
9:50 AM 91.4 °F 42.8 °F 18% 29.71 in - ENE 6.9 mph - N/A   Clear
10:20 AM 95.0 °F 37.4 °F 13% 29.71 in - North 6.9 mph - N/A   Clear
10:50 AM 96.8 °F 35.6 °F 12% 29.68 in - ENE 9.2 mph - N/A   Clear
11:20 AM 96.8 °F 33.8 °F 11% 29.68 in - NE 5.8 mph - N/A   Clear
11:50 AM 98.6 °F 35.6 °F 11% 29.68 in - North 6.9 mph - N/A   Clear
12:20 PM 100.4 °F 33.8 °F 10% 29.65 in - ENE 6.9 mph - N/A   Clear
12:50 PM 100.4 °F 30.2 °F 9% 29.65 in - East 5.8 mph - N/A   Clear
1:20 PM 100.4 °F 30.2 °F 9% 29.65 in - ENE 6.9 mph - N/A   Clear
1:50 PM 100.4 °F 30.2 °F 9% 29.65 in - ENE 6.9 mph - N/A   Clear
2:20 PM 102.2 °F 30.2 °F 8% 29.65 in - Variable 4.6 mph - N/A   Clear
2:50 PM 102.2 °F 30.2 °F 8% 29.62 in - East 6.9 mph - N/A   Clear
3:00 PM 102 °F 31 °F 4% 29.47 in 12 mi East 6.9 mph - -  
3:20 PM 102.2 °F 33.8 °F 9% 29.62 in - Variable 5.8 mph - N/A   Clear
3:50 PM 102.2 °F 33.8 °F 9% 29.62 in - Variable 5.8 mph - N/A   Clear
4:20 PM 102.2 °F 33.8 °F 9% 29.62 in - Variable 4.6 mph - N/A   Clear
4:50 PM 102.2 °F 33.8 °F 9% 29.62 in - NE 5.8 mph - N/A   Clear
5:20 PM 102.2 °F 33.8 °F 9% 29.59 in - East 6.9 mph - N/A   Clear
5:50 PM 100.4 °F 32.0 °F 9% 29.59 in - ENE 5.8 mph - N/A   Clear
6:20 PM 98.6 °F 30.2 °F 9% 29.59 in - ENE 4.6 mph - N/A   Clear
6:50 PM 96.8 °F 28.4 °F 9% 29.62 in - ENE 6.9 mph - N/A   Clear
7:20 PM 93.2 °F 33.8 °F 12% 29.62 in - NE 5.8 mph - N/A   Clear
7:50 PM 89.6 °F 30.2 °F 12% 29.62 in - North 5.8 mph - N/A   Clear
8:20 PM 91.4 °F 28.4 °F 10% 29.65 in - West 11.5 mph - N/A   Clear
8:50 PM 89.6 °F 26.6 °F 10% 29.65 in - West 12.7 mph - N/A   Clear
9:00 PM 90 °F 25 °F 4% 29.49 in 12 mi West 12.7 mph - -  
9:20 PM 91.4 °F 28.4 °F 10% 29.65 in - West 12.7 mph - N/A   Clear
9:50 PM 87.8 °F 24.8 °F 10% 29.65 in - West 10.4 mph - N/A   Clear
10:20 PM 86.0 °F 26.6 °F 12% 29.65 in - WSW 10.4 mph - N/A   Clear
10:50 PM 84.2 °F 26.6 °F 12% 29.68 in - West 10.4 mph - N/A   Clear
11:20 PM 82.4 °F 28.4 °F 14% 29.68 in - West 8.1 mph - N/A   Clear
11:50 PM 82.4 °F 30.2 °F 15% 29.68 in - West 4.6 mph - N/A   Clear